GW1112 Weather Reports


time (UTC)temp
C
wind
direction
speed
KPH
gust
KPH
rain 1hr
cm
rain 24hr
cm
rain mn
cm
humidity
%
barometer
mb
20260504050623 2 252 0.0 0.0 0.00 0.00 0.00 91 1013.5
20260504050120 2 252 0.0 0.0 0.00 0.00 0.00 90 1013.4
20260504045617 3 252 0.0 0.0 0.00 0.00 0.00 89 1013.3
20260504045112 3 251 0.0 0.0 0.00 0.00 0.00 87 1013.7
20260504044610 3 251 0.0 0.0 0.00 0.00 0.00 87 1013.5
20260504044106 3 251 0.0 0.0 0.00 0.00 0.00 88 1013.4
20260504043604 3 252 0.0 0.0 0.00 0.00 0.00 87 1013.4
20260504043100 3 251 0.0 0.0 0.00 0.00 0.00 87 1013.4
20260504042558 3 251 0.0 0.0 0.00 0.00 0.00 86 1013.4
20260504042055 4 250 0.0 0.0 0.00 0.00 0.00 84 1013.4
20260504041550 4 250 0.0 0.0 0.00 0.00 0.00 83 1013.4
20260504041047 4 250 0.0 0.0 0.00 0.00 0.00 82 1013.5
20260504040544 4 250 0.0 0.0 0.00 0.00 0.00 84 1013.4
20260504040041 3 250 0.0 0.0 0.00 0.00 0.00 86 1013.2
20260504035538 3 250 0.0 0.0 0.00 0.00 0.00 85 1013.2
20260504035034 3 250 0.0 0.0 0.00 0.00 0.00 85 1013.3
20260504034532 3 250 0.0 0.0 0.00 0.00 0.00 87 1013.1
20260504034028 3 250 0.0 0.0 0.00 0.00 0.00 88 1013.2
20260504033527 3 251 0.0 0.0 0.00 0.00 0.00 89 1013.2
20260504033024 3 250 0.0 0.0 0.00 0.00 0.00 89 1013.3
20260504032520 3 251 0.0 0.0 0.00 0.00 0.00 89 1013.2
20260504032018 3 250 0.0 0.0 0.00 0.00 0.00 88 1013.3
20260504031515 3 250 0.0 0.0 0.00 0.00 0.00 88 1013.2
20260504031011 3 250 0.0 0.0 0.00 0.00 0.00 88 1013.4
20260504030509 3 250 0.0 0.0 0.00 0.00 0.00 88 1013.1
20260504030005 3 250 0.0 0.0 0.00 0.00 0.00 87 1013.2
20260504025502 3 250 0.0 0.0 0.00 0.00 0.00 86 1013.1
20260504024958 3 250 0.0 0.0 0.00 0.00 0.00 87 1013.3
20260504024454 3 250 0.0 0.0 0.00 0.00 0.00 89 1013.3
20260504023952 3 250 0.0 0.0 0.00 0.00 0.00 90 1013.3
20260504023449 3 250 0.0 0.0 0.00 0.00 0.00 90 1013.3
20260504022944 3 249 0.0 0.0 0.00 0.00 0.00 88 1013.3
20260504022440 3 249 0.0 0.0 0.00 0.00 0.00 90 1013.2
20260504021937 3 249 0.0 0.0 0.00 0.00 0.00 89 1013.3
20260504021434 3 249 0.0 0.0 0.00 0.00 0.00 89 1013.4
20260504020931 3 249 0.0 0.0 0.00 0.00 0.00 88 1013.3
20260504020428 3 249 0.0 0.0 0.00 0.00 0.00 87 1013.1
20260504015925 4 249 0.0 0.0 0.00 0.00 0.00 87 1013.3
20260504015420 4 249 0.0 0.0 0.00 0.00 0.00 87 1013.1
20260504014917 4 249 0.0 0.0 0.00 0.00 0.00 87 1013.4
20260504014413 4 249 0.0 0.0 0.00 0.00 0.00 86 1013.1
20260504013910 5 249 0.0 0.0 0.00 0.00 0.00 85 1013.0
20260504013408 5 249 0.0 0.0 0.00 0.00 0.00 84 1013.3
20260504012904 5 249 0.0 0.0 0.00 0.00 0.00 82 1013.3
20260504012403 5 249 0.0 0.0 0.00 0.00 0.00 82 1013.2
20260504011900 5 248 0.0 0.0 0.00 0.00 0.00 80 1013.1
20260504011357 6 248 0.0 0.0 0.00 0.00 0.00 77 1013.0
20260504010852 6 248 0.0 0.0 0.00 0.00 0.00 77 1013.0
20260504010348 6 248 0.0 0.0 0.00 0.00 0.00 74 1013.0
20260504005844 7 248 0.0 0.0 0.00 0.00 0.00 73 1013.0
20260504005341 7 246 0.0 0.0 0.00 0.00 0.00 69 1012.9
20260504004839 7 245 0.0 0.0 0.00 0.00 0.00 65 1012.9
20260504004336 8 245 0.0 0.0 0.00 0.00 0.00 65 1013.0
20260504003832 8 245 0.0 0.0 0.00 0.00 0.00 65 1012.9
20260504003330 8 244 0.0 0.0 0.00 0.00 0.00 64 1012.8
20260504002826 10 243 0.0 0.0 0.00 0.00 0.00 60 1012.6
20260504002323 10 243 0.0 0.0 0.00 0.00 0.00 59 1012.9
20260504001821 10 228 0.0 1.6 0.00 0.00 0.00 57 1012.7
20260504001318 11 234 1.6 3.2 0.00 0.00 0.00 56 1012.8
20260504000815 11 247 0.0 1.6 0.00 0.00 0.00 55 1012.6
20260504000312 11 258 3.2 3.2 0.00 0.00 0.00 53 1012.7
20260503235809 11 267 3.2 3.2 0.00 0.00 0.00 53 1012.6
20260503235307 12 241 0.0 1.6 0.00 0.00 0.00 52 1012.6
20260503234804 12 260 6.4 6.4 0.00 0.00 0.00 50 1012.5
20260503234302 12 246 8.0 11.3 0.00 0.00 0.00 50 1012.4
20260503233759 12 268 6.4 6.4 0.00 0.00 0.00 50 1012.4
20260503233255 12 263 6.4 6.4 0.00 0.00 0.00 50 1012.6
20260503232752 12 263 6.4 6.4 0.00 0.00 0.00 49 1012.2
20260503232249 13 258 9.7 12.9 0.00 0.00 0.00 48 1012.4
20260503231747 13 244 4.8 4.8 0.00 0.00 0.00 49 1012.4
20260503231244 13 266 9.7 11.3 0.00 0.00 0.00 48 1012.4
20260503230740 13 236 3.2 4.8 0.00 0.00 0.00 49 1012.4
20260503230238 13 256 6.4 6.4 0.00 0.00 0.00 49 1012.4
20260503225735 13 237 3.2 3.2 0.00 0.00 0.00 49 1012.5
20260503225234 13 252 4.8 4.8 0.00 0.00 0.00 47 1012.5
20260503224732 13 263 8.0 12.9 0.00 0.00 0.00 49 1012.3
20260503224230 13 257 12.9 12.9 0.00 0.00 0.00 46 1012.5
20260503223727 13 264 11.3 12.9 0.00 0.00 0.00 47 1012.3
20260503223225 13 271 4.8 6.4 0.00 0.00 0.00 48 1012.3
20260503222721 13 281 9.7 11.3 0.00 0.00 0.00 46 1012.4
20260503222219 13 245 4.8 6.4 0.00 0.00 0.00 46 1012.4
20260503221717 13 256 6.4 9.7 0.00 0.00 0.00 48 1012.3
20260503221214 14 262 8.0 9.7 0.00 0.00 0.00 47 1012.5
20260503220711 14 270 8.0 9.7 0.00 0.00 0.00 46 1012.5
20260503220207 13 267 3.2 4.8 0.00 0.00 0.00 46 1012.6
20260503215704 13 263 6.4 9.7 0.00 0.00 0.00 47 1012.6
20260503215201 13 236 0.0 1.6 0.00 0.00 0.00 50 1012.5
20260503214700 15 279 9.7 12.9 0.00 0.00 0.00 45 1012.5
20260503214155 14 236 8.0 12.9 0.00 0.00 0.00 47 1012.5
20260503213655 14 250 0.0 1.6 0.00 0.00 0.00 47 1012.4
20260503213151 13 229 3.2 6.4 0.00 0.00 0.00 49 1012.4
20260503212648 13 281 11.3 12.9 0.00 0.00 0.00 46 1012.6
20260503212146 13 234 3.2 4.8 0.00 0.00 0.00 46 1012.2
20260503211643 13 250 3.2 3.2 0.00 0.00 0.00 50 1012.3
20260503211138 13 246 0.0 1.6 0.00 0.00 0.00 49 1012.4
20260503210635 13 288 9.7 11.3 0.00 0.00 0.00 46 1012.5
20260503210132 13 237 4.8 6.4 0.00 0.00 0.00 48 1012.4
20260503205628 13 254 8.0 11.3 0.00 0.00 0.00 47 1012.5
20260503205124 13 263 8.0 9.7 0.00 0.00 0.00 48 1012.4
20260503204621 13 248 8.0 9.7 0.00 0.00 0.00 47 1012.5
20260503204119 13 267 8.0 9.7 0.00 0.00 0.00 47 1012.5
20260503203615 13 253 4.8 6.4 0.00 0.00 0.00 46 1012.6
20260503203113 13 240 6.4 6.4 0.00 0.00 0.00 46 1012.4
20260503202611 13 256 6.4 6.4 0.00 0.00 0.00 48 1012.4
20260503202109 13 252 4.8 6.4 0.00 0.00 0.00 48 1012.5
20260503201607 13 276 4.8 6.4 0.00 0.00 0.00 46 1012.6
20260503201104 13 281 8.0 9.7 0.00 0.00 0.00 46 1012.7
20260503200600 13 274 11.3 14.5 0.00 0.00 0.00 46 1012.6
20260503200056 13 275 9.7 14.5 0.00 0.00 0.00 47 1012.6
20260503195553 13 308 8.0 11.3 0.00 0.00 0.00 46 1012.7
20260503195050 15 268 9.7 12.9 0.00 0.00 0.00 45 1012.7
20260503194547 15 266 3.2 3.2 0.00 0.00 0.00 46 1012.7
20260503194047 13 228 3.2 4.8 0.00 0.00 0.00 49 1012.9
20260503193544 13 259 6.4 9.7 0.00 0.00 0.00 49 1012.9
20260503193039 13 281 3.2 4.8 0.00 0.00 0.00 48 1012.9
20260503192535 13 228 3.2 3.2 0.00 0.00 0.00 46 1013.0
20260503192031 13 279 1.6 3.2 0.00 0.00 0.00 46 1013.2
20260503191528 13 273 9.7 11.3 0.00 0.00 0.00 46 1013.2
20260503191025 14 161 8.0 11.3 0.00 0.00 0.00 42 1013.1
20260503190522 13 270 3.2 3.2 0.00 0.00 0.00 48 1013.3
20260503190019 13 252 4.8 4.8 0.00 0.00 0.00 49 1013.2
20260503185515 13 274 4.8 9.7 0.00 0.00 0.00 48 1013.4
20260503185015 13 246 3.2 6.4 0.00 0.00 0.00 50 1013.5
20260503184511 13 275 9.7 12.9 0.00 0.00 0.00 49 1013.3
20260503184008 13 298 4.8 4.8 0.00 0.00 0.00 49 1013.4
20260503183504 13 231 3.2 3.2 0.00 0.00 0.00 50 1013.5
20260503183001 13 291 3.2 4.8 0.00 0.00 0.00 51 1013.8
20260503182500 13 266 4.8 4.8 0.00 0.00 0.00 48 1013.8
20260503181957 13 291 3.2 4.8 0.00 0.00 0.00 45 1013.9
20260503181454 12 257 6.4 6.4 0.00 0.00 0.00 50 1013.8
20260503180950 13 263 12.9 14.5 0.00 0.00 0.00 51 1013.7
20260503180449 13 272 3.2 4.8 0.00 0.00 0.00 49 1013.8
20260503175945 13 225 1.6 3.2 0.00 0.00 0.00 50 1013.8
20260503175443 12 238 3.2 3.2 0.00 0.00 0.00 52 1013.8
20260503174939 13 267 6.4 6.4 0.00 0.00 0.00 52 1013.8
20260503174438 13 290 9.7 16.1 0.00 0.00 0.00 51 1013.9
20260503173937 14 182 3.2 4.8 0.00 0.00 0.00 54 1013.7
20260503173434 13 261 3.2 3.2 0.00 0.00 0.00 48 1013.8
20260503172931 13 258 0.0 1.6 0.00 0.00 0.00 49 1013.8
20260503172428 14 211 0.0 0.0 0.00 0.00 0.00 53 1014.0
20260503171924 13 297 6.4 6.4 0.00 0.00 0.00 50 1013.9
20260503171421 13 314 3.2 4.8 0.00 0.00 0.00 53 1014.0
20260503170919 12 264 1.6 3.2 0.00 0.00 0.00 54 1013.9
20260503170415 12 271 4.8 6.4 0.00 0.00 0.00 50 1013.9
20260503150807 10 270 3.2 4.8 0.00 0.00 0.00 51 1015.0
20260503150303 10 322 8.0 11.3 0.00 0.00 0.00 53 1015.2
20260503140228 10 295 6.4 9.7 0.00 0.00 0.00 59 1015.3
20260503131157 7 52 6.4 9.7 0.00 0.00 0.00 65 1015.7
20260503130654 6 271 0.0 0.0 0.00 0.00 0.00 68 1015.8
20260503130152 7 258 1.6 3.2 0.00 0.00 0.00 67 1015.9
20260503120123 5 199 3.2 3.2 0.00 0.00 0.00 74 1015.5
20260503110551 3 255 0.0 0.0 0.00 0.00 0.00 79 1015.1
20260503090437 1 258 0.0 0.0 0.00 0.00 0.00 86 1014.3
20260503081404 2 255 0.0 0.0 0.00 0.00 0.00 80 1014.1
20260503080901 2 282 1.6 3.2 0.00 0.00 0.00 79 1014.0
20260503080358 2 242 0.0 0.0 0.00 0.00 0.00 80 1014.0
20260503072834 2 236 1.6 1.6 0.00 0.00 0.00 80 1013.9
20260503072331 2 252 0.0 0.0 0.00 0.00 0.00 79 1013.8
20260503071827 2 250 0.0 0.0 0.00 0.00 0.00 80 1013.7
20260503071325 2 260 0.0 0.0 0.00 0.00 0.00 78 1013.9
20260503070821 2 222 0.0 0.0 0.00 0.00 0.00 77 1013.8
20260503070319 2 286 0.0 1.6 0.00 0.00 0.00 78 1013.8
20260503060244 3 260 0.0 0.0 0.00 0.00 0.00 77 1013.7
20260503054731 4 250 0.0 0.0 0.00 0.00 0.00 74 1013.9
20260503054228 4 261 1.6 3.2 0.00 0.00 0.00 74 1013.8
20260503053726 4 260 1.6 1.6 0.00 0.00 0.00 75 1013.9